Flag for Canada Weather past 2 weeks in Summerside, Pr.Edward I, Canada

Now
16 °F

Cold.


Feels Like: 1 °F
Forecast: N/A
Wind: 15 mph from Northwest

Location: Summerside Airport

Current Time: Mar 5, 2015 at 4:44:58 PM

Latest Report: Mar 5, 2015 at 4:00 PM


Visibility: N/A

Pressure: 29.90 "Hg

Humidity: 48%

Dew point: -1 °F

Location of SummersideLocation

Historic Weather in Summerside — Graph

°F

Summerside temperature yesterday

Maximum temperature yesterday: 35 °F (at 2:00 PM)
Minimum temperature yesterday: 7 °F (at 12:00 AM)
Average temperature yesterday: 25 °F

Past Weeks' High & Low Weather Summary

 TemperatureHumidityPressure
High35 °F (Mar 4, 2:00 PM)98% (Feb 19, 9:00 AM)30.61 "Hg (Feb 19, 9:00 AM)
Low-9 °F (Feb 24, 7:00 AM)38% (Mar 3, 4:00 PM)29.25 "Hg (Feb 25, 5:00 PM)
Average16 °F73%29.95 "Hg
* Reported Feb 18 3:00 PM — Mar 5 3:00 PM, Summerside, Weather by CustomWeather, © 2015

Note: Actual official high and low records may vary slightly from our data, if they occured in-between our weather recording intervals... More about our weather records

Advertising

Summerside weather history for previous 24 hours

 ConditionsComfort  
Time TempWeatherWind HumidityBarometerVisibility
3:00 PM
Thu, Mar 5
16 °FCold.21 mph47%29.86 "HgN/A
2:00 PM17 °FCold.21 mph48%29.85 "HgN/A
1:00 PM18 °FCold.21 mph52%29.85 "HgN/A
12:00 PM18 °FCold.21 mph53%29.82 "HgN/A
11:00 AM20 °FCold.21 mph53%29.82 "HgN/A
10:00 AM19 °FCold.21 mph59%29.83 "HgN/A
9:00 AM20 °FCold.22 mph56%29.79 "HgN/A
8:00 AM23 °FCold.17 mph60%29.73 "HgN/A
7:00 AM26 °FChilly.9 mph71%29.70 "HgN/A
6:00 AM28 °FChilly.14 mph66%29.68 "HgN/A
5:00 AM29 °FChilly.14 mph66%29.65 "HgN/A
4:00 AM29 °FChilly.12 mph65%29.62 "HgN/A
3:00 AM28 °FChilly.9 mph70%29.62 "HgN/A
2:00 AM28 °FChilly.13 mph68%29.66 "HgN/A
1:00 AM28 °FChilly.9 mph72%29.64 "HgN/A
12:00 AM31 °FChilly.15 mph57%29.63 "HgN/A
11:00 PM
Wed, Mar 4
31 °FChilly.16 mph58%29.63 "HgN/A
10:00 PM28 °FChilly.12 mph79%29.58 "HgN/A
9:00 PM30 °FChilly.12 mph77%29.59 "HgN/A
8:00 PM29 °FChilly.12 mph74%29.59 "HgN/A
6:00 PM31 °FChilly.12 mph68%29.52 "HgN/A
5:00 PM34 °FChilly.17 mph65%29.51 "HgN/A
4:00 PM35 °FChilly.20 mph69%29.51 "HgN/A
Weather by CustomWeather, © 2015

See weather overviewHow to use our weather pages